Weather History for Rotterdam, Netherlands

Change the Weather History Date:

Tuesday, May 15, 2012

  Actual Average Record
Temperature  
Mean Temperature 50 °F -  
Max Temperature 54 °F 64 °F 82 °F (2000)
Min Temperature 45 °F 48 °F 37 °F (2014)
Degree Days  
Heating Degree Days 16    
Moisture  
Dew Point 44 °F    
Average Humidity 80    
Maximum Humidity 93    
Minimum Humidity 58    
Precipitation  
Precipitation 0.08 in - - ()
Sea Level Pressure  
Sea Level Pressure 29.84 in    
Wind  
Wind Speed 9 mph ()    
Max Wind Speed 15 mph    
Max Gust Speed -    
Visibility 7.2 miles    
Events Rain , Thunderstorm    
Averages and records for this station are not official NWS values.
T = Trace of Precipitation, MM = Missing Value Source: Averaged Metar Reports

Daily Weather History Graph

Daily Weather History Graph

Search for Another Location

Airport:

Trip Planner

Search our weather history database for the weather conditions in past years. The results will help you decide how hot, cold, wet, or windy it might be!

Date:

Astronomy

May. 15, 2012 Rise Set
Actual Time 5:48 AM CEST 9:30 PM CEST
Civil Twilight 5:05 AM CEST 10:12 PM CEST
Nautical Twilight 4:07 AM CEST 11:11 PM CEST
Astronomical Twilight 2:36 AM CEST 12:46 AM CEST
Moon 3:20 AM CEST (5/15) 3:59 PM CEST (5/15)
Length of Visible Light 17h 06m
Length of Day
15h 41m
Waning Crescent, 26% of the Moon is Illuminated
May 15
Waning Crescent
May 21
New
May 28
First Quarter
Jun 4
Full
Jun 11
Last Quarter

Hourly Weather History & Observations

Time (CEST) Temp. Windchill Dew Point Humidity Pressure Visibility Wind Dir Wind Speed Gust Speed Precip Events Conditions
12:25 AM 48.2 °F - 44.6 °F 87% 29.89 in 6.2 mi West 9.2 mph - N/A Rain Heavy Rain Showers
12:55 AM 48.2 °F - 44.6 °F 87% 29.89 in 6.2 mi SW 6.9 mph - N/A Rain Light Rain
1:25 AM 48.2 °F - 44.6 °F 87% 29.86 in 6.2 mi WSW 6.9 mph - N/A Rain Light Rain
1:55 AM 48.2 °F - 44.6 °F 87% 29.86 in 6.2 mi South 6.9 mph - N/A Rain Light Rain
2:00 AM 48 °F - 45 °F 86% 29.86 in 14 mi South 6.7 mph - - Rain Light Rain
2:25 AM 48.2 °F - 46.4 °F 93% 29.83 in 6.2 mi South 6.9 mph - N/A Rain Light Rain
2:55 AM 48.2 °F - 44.6 °F 87% 29.83 in 6.2 mi South 6.9 mph - N/A   Overcast
3:25 AM 46.4 °F 40.4 °F 44.6 °F 93% 29.83 in 6.2 mi SW 13.8 mph - N/A Rain Rain Showers
3:55 AM 46.4 °F 41.1 °F 42.8 °F 87% 29.80 in 6.2 mi SSW 11.5 mph - N/A   Mostly Cloudy
4:25 AM 46.4 °F 41.5 °F 44.6 °F 93% 29.80 in 6.2 mi SSW 10.4 mph - N/A   Overcast
4:55 AM 46.4 °F 41.5 °F 42.8 °F 87% 29.80 in 6.2 mi SSW 10.4 mph - N/A   Scattered Clouds
5:00 AM 47 °F - 44 °F 84% 29.81 in 22 mi SSW 11.2 mph - -   Overcast
5:25 AM 46.4 °F 41.1 °F 44.6 °F 93% 29.80 in 6.2 mi SW 11.5 mph - N/A   Overcast
5:55 AM 46.4 °F 42.4 °F 44.6 °F 93% 29.80 in 6.2 mi WSW 8.1 mph - N/A Rain Rain Showers
6:25 AM 46.4 °F 43.5 °F 44.6 °F 93% 29.80 in 6.2 mi SW 5.8 mph - N/A   Overcast
6:55 AM 46.4 °F 43.5 °F 44.6 °F 93% 29.80 in 6.2 mi WSW 5.8 mph - N/A Thunderstorm Thunderstorm
7:25 AM 48.2 °F - 44.6 °F 87% 29.77 in 6.2 mi SW 3.5 mph - N/A   Mostly Cloudy
7:55 AM 46.4 °F 45.2 °F 44.6 °F 93% 29.77 in 6.2 mi West 3.5 mph - N/A Rain Light Rain Showers
8:00 AM 46 °F - 45 °F 93% 29.79 in 12 mi SW 4.5 mph - - Rain Rain
8:25 AM 48.2 °F - 46.4 °F 93% 29.77 in 5.6 mi SW 3.5 mph - N/A Rain Rain Showers
8:55 AM 48.2 °F - 46.4 °F 93% 29.77 in 6.2 mi West 6.9 mph - N/A   Partly Cloudy
9:25 AM 50.0 °F - 46.4 °F 87% 29.77 in 6.2 mi NW 8.1 mph - N/A   Partly Cloudy
9:55 AM 53.6 °F - 44.6 °F 72% 29.77 in 6.2 mi WNW 8.1 mph - N/A   Scattered Clouds
10:25 AM 51.8 °F - 44.6 °F 76% 29.77 in 6.2 mi WNW 6.9 mph - N/A   Mostly Cloudy
10:55 AM 53.6 °F - 44.6 °F 72% 29.77 in 6.2 mi NW 9.2 mph - N/A   Scattered Clouds
11:00 AM 53 °F - 45 °F 65% 29.79 in 16 mi NW 8.9 mph - -   Overcast
11:25 AM 51.8 °F - 44.6 °F 76% 29.77 in 6.2 mi NW 9.2 mph - N/A   Mostly Cloudy
11:55 AM 53.6 °F - 44.6 °F 72% 29.77 in 6.2 mi NW 10.4 mph - N/A   Mostly Cloudy
12:25 PM 51.8 °F - 42.8 °F 71% 29.77 in 6.2 mi NW 10.4 mph - N/A   Mostly Cloudy
12:55 PM 53.6 °F - 42.8 °F 67% 29.77 in 6.2 mi NW 10.4 mph - N/A Thunderstorm Thunderstorm
1:25 PM 51.8 °F - 44.6 °F 76% 29.77 in 6.2 mi WNW 10.4 mph - N/A Thunderstorm Thunderstorm
1:55 PM 50.0 °F - 44.6 °F 82% 29.80 in 6.2 mi WNW 8.1 mph - N/A   Mostly Cloudy
2:00 PM 50 °F - 44 °F 72% 29.81 in 17 mi WNW 8.9 mph - - Thunderstorm Light Thunderstorm
2:25 PM 50.0 °F - 42.8 °F 76% 29.80 in 6.2 mi NNW 6.9 mph - N/A Thunderstorm Thunderstorm
2:55 PM 53.6 °F - 44.6 °F 72% 29.80 in 6.2 mi West 13.8 mph - N/A Thunderstorm Thunderstorm
3:25 PM 53.6 °F - 44.6 °F 72% 29.80 in 6.2 mi WNW 12.7 mph - N/A   Mostly Cloudy
3:55 PM 51.8 °F - 42.8 °F 71% 29.83 in 6.2 mi NW 12.7 mph - N/A   Overcast
4:25 PM 51.8 °F - 42.8 °F 71% 29.83 in 6.2 mi NW 12.7 mph - N/A   Partly Cloudy
4:55 PM 53.6 °F - 42.8 °F 67% 29.83 in 6.2 mi NW 12.7 mph - N/A   Mostly Cloudy
5:00 PM 53 °F - 43 °F 58% 29.85 in 17 mi WNW 13.4 mph - -   Overcast
5:25 PM 53.6 °F - 42.8 °F 67% 29.83 in 6.2 mi NW 12.7 mph - N/A   Mostly Cloudy
5:55 PM 51.8 °F - 42.8 °F 71% 29.86 in 6.2 mi NW 10.4 mph - N/A   Partly Cloudy
6:25 PM 51.8 °F - 42.8 °F 71% 29.86 in 6.2 mi NW 11.5 mph - N/A   Scattered Clouds
6:55 PM 50.0 °F - 42.8 °F 76% 29.86 in 6.2 mi NW 12.7 mph - N/A   Mostly Cloudy
7:25 PM 51.8 °F - 41.0 °F 67% 29.89 in 6.2 mi NW 10.4 mph - N/A   Mostly Cloudy
7:55 PM 50.0 °F - 42.8 °F 76% 29.89 in 6.2 mi NW 11.5 mph - N/A   Mostly Cloudy
8:00 PM 49 °F - 44 °F 76% 29.91 in 19 mi NNW 13.4 mph - - Rain Light Rain Showers
8:25 PM 48.2 °F - 42.8 °F 82% 29.89 in 6.2 mi NNW 15.0 mph - N/A   Mostly Cloudy
8:55 PM 48.2 °F - 41.0 °F 76% 29.92 in 6.2 mi NNW 11.5 mph - N/A   Overcast
9:25 PM 46.4 °F 41.1 °F 42.8 °F 87% 29.95 in 6.2 mi North 11.5 mph - N/A Rain Rain Showers
9:55 PM 46.4 °F 40.4 °F 42.8 °F 87% 29.95 in 6.2 mi NNW 13.8 mph - N/A   Drizzle
10:25 PM 46.4 °F 40.4 °F 41.0 °F 81% 29.98 in 6.2 mi NNW 13.8 mph - N/A   Scattered Clouds
10:55 PM 48.2 °F - 41.0 °F 76% 29.98 in 6.2 mi NNW 13.8 mph - N/A   Mostly Cloudy
11:00 PM 46 °F - 41 °F 77% 30.00 in 6 mi North 13.4 mph - - Rain Light Rain Showers
11:25 PM 46.4 °F 40.1 °F 41.0 °F 81% 29.98 in 6.2 mi NNW 15.0 mph - N/A   Partly Cloudy
11:55 PM 46.4 °F 40.1 °F 41.0 °F 81% 30.01 in 6.2 mi NNW 15.0 mph - N/A Rain Light Rain